OPS 6432

operational
NORAD ID: 14112 Int'l Des: 1983-056 Owner: NRO/NRL Country: US
LEO

关于 OPS 6432

正在加载描述...

实时位置

正在加载3D地球...

即将过境

高度历史

Altitude vs Time

uPlot chart will show altitude changes over time

两行轨道根数

1 14112U 83056A 26061.12992836 .00003417 00000-0 37233-3 0 9992
2 14112 63.3031 108.7892 0700689 131.2727 235.0881 13.88316437 93435
Epoch: Mar 2, 2026 • Age: 44 hours

当前状态

高度 719.6 km
速度 7.61 km/s
星下点 -17.53°S, 165.02°W
发射日期 Jun 9, 1983
运行时间 42.7 years
类型 other

技术详情

分类 Payload
质量 559.00 kg
干质量 559.00 kg
总质量 590.00 kg
长度 1.60 m
直径 1.50 m
跨度 2.70 m
形状 Box + Ant
制造商 MM
平台类型 NOSS MSD
阶段状态 Attached in Orbit
所有者/国家 NRO/NRL/US

大型星座

Loading constellations...